Location: Phoenix
(33.4480°N, 112.0730°W)
Time: 16:55:54
(UTC-07:00)

ISS - All Passes

Search period start: 22 October 2014 00:00
Search period end: 01 November 2014 00:00
Orbit: 413 x 416 km, 51.6° (Epoch: 22 October)

Date Brightness Start Highest point End Pass type
(mag) Time Alt. Az. Time Alt. Az. Time Alt. Az.
22 Oct - 11:44:01 10° SSE 11:45:34 13° SE 11:47:07 10° E daylight
22 Oct - 13:18:45 10° WSW 13:21:56 44° NW 13:25:09 10° NE daylight
22 Oct - 19:50:45 10° NNW 19:53:42 29° NE 19:56:39 10° E visible
22 Oct - 21:27:42 10° WNW 21:30:16 21° SW 21:32:49 10° S night (unlit)
23 Oct - 12:29:31 10° SW 12:32:50 90° SE 12:36:10 10° NE daylight
23 Oct - 14:08:46 10° NW 14:09:57 11° NNW 14:11:07 10° N daylight
23 Oct - 19:02:06 10° NNW 19:04:27 18° NNE 19:06:48 10° ENE visible
23 Oct - 20:38:07 10° WNW 20:41:17 41° SW 20:44:25 10° SSE visible
24 Oct - 11:40:37 10° SSW 11:43:45 42° SE 11:46:55 10° ENE daylight
24 Oct - 13:18:16 10° WNW 13:20:35 17° NNW 13:22:55 10° NNE daylight
24 Oct - 18:13:52 10° N 18:15:06 12° NNE 18:16:19 10° NE visible
24 Oct - 19:48:51 10° NW 19:52:12 88° SW 19:55:31 10° SE visible
25 Oct - 10:52:09 10° S 10:54:43 21° SE 10:57:17 10° ENE daylight
25 Oct - 12:28:20 10° W 12:31:16 28° NW 12:34:12 10° NNE daylight
25 Oct - 18:59:47 10° NW 19:03:00 45° NE 19:06:12 10° ESE visible
25 Oct - 20:37:51 10° W 20:39:21 13° SW 20:40:51 10° SSW visible
26 Oct - 10:04:53 10° SE 10:05:41 11° SE 10:06:30 10° ESE daylight
26 Oct - 11:38:45 10° WSW 11:41:59 52° NW 11:45:15 10° NE daylight
26 Oct - 18:10:51 10° NNW 18:13:41 25° NE 18:16:31 10° E visible
26 Oct - 19:47:32 10° WNW 19:50:18 24° SW 19:53:03 10° S visible
27 Oct - 10:49:27 10° SW 10:52:45 75° SE 10:56:04 10° NE daylight
27 Oct - 12:28:13 10° WNW 12:29:46 13° NNW 12:31:19 10° N daylight
27 Oct - 17:22:08 10° N 17:24:16 16° NNE 17:26:23 10° ENE daylight
27 Oct - 18:57:55 10° WNW 19:01:09 50° SW 19:04:22 10° SSE visible
28 Oct - 10:00:29 10° SSW 10:03:32 35° SE 10:06:35 10° ENE daylight
28 Oct - 11:37:46 10° W 11:40:16 20° NW 11:42:47 10° NNE daylight
28 Oct - 16:34:08 10° NNE 16:34:43 10° NNE 16:35:19 10° NE daylight
28 Oct - 18:08:33 10° NW 18:11:53 77° NE 18:15:12 10° SE visible
29 Oct - 09:12:03 10° S 09:14:21 18° SE 09:16:39 10° E daylight
29 Oct - 10:47:47 10° WSW 10:50:49 33° NW 10:53:52 10° NNE daylight
29 Oct - 17:19:23 10° NNW 17:22:31 38° NE 17:25:38 10° ESE daylight
29 Oct - 18:56:57 10° W 18:58:55 15° SW 19:00:54 10° SSW visible
30 Oct - 09:58:07 10° SW 10:01:24 64° NW 10:04:42 10° NE daylight
30 Oct - 16:30:21 10° NNW 16:33:02 22° NE 16:35:41 10° E daylight
30 Oct - 18:06:46 10° WNW 18:09:42 29° SW 18:12:37 10° SSE visible
31 Oct - 09:08:46 10° SW 09:12:01 60° SE 09:15:18 10° NE daylight
31 Oct - 10:47:06 10° WNW 10:48:58 14° NNW 10:50:50 10° N daylight
31 Oct - 15:41:35 10° N 15:43:25 14° NNE 15:45:16 10° ENE daylight
31 Oct - 17:17:05 10° NW 17:20:22 62° SW 17:23:38 10° SE daylight
